Regional Weather Roundup
Issued by NWS

Home | Current Version | Previous Version | Text Only | Print | Product List | Glossary On
Versions: 1 2 3 4 5 6 7 8 9 10 11 12 13 14 15 16 17 18 19 20 21 22 23 24 25 26 27 28 29 30 31 32 33 34 35 36 37 38 39 40 41 42 43 44 45 46 47 48 49 50
000
ASUS43 KTOP 180959
RWRKS

WEATHER ROUNDUP FOR KANSAS
NATIONAL WEATHER SERVICE GOODLAND KS
500 AM CDT SAT APR 18 2015

NOTE:  "FAIR" INDICATES FEW OR NO CLOUDS BELOW 12,000 FEET WITH NO
SIGNIFICANT WEATHER AND/OR OBSTRUCTIONS TO VISIBILITY.

KSZ001>006-013>018-027>032-041>047-181100-
NORTHWEST KANSAS

CITY           SKY/WX    TMP DP  RH WIND       PRES   REMARKS
GOODLAND       FOG       39  39 100 NW5       29.91F VSB 1
HAYS           MOCLDY    52  43  71 S6        29.93S
HILL CITY      PTCLDY    48  46  93 SW3       29.92R
RUSSELL        CLOUDY    54  51  90 N5        29.91F
$$

KSZ061>065-074>080-084>089-181100-
SOUTHWEST KANSAS

CITY           SKY/WX    TMP DP  RH WIND       PRES   REMARKS
DODGE CITY     FOG       54  53  97 S12       29.93S VSB 1/4
ELKHART          N/A    N/A N/A N/A MISG        N/A
GARDEN CITY    FOG       51  51 100 E7        29.89F VSB 1/4
GREAT BEND     CLOUDY    59  54  82 CALM      29.92S
LIBERAL        CLEAR     52  45  76 S9        29.92F
$$

KSZ066>073-081>083-090>101-181100-
SOUTHEAST KANSAS

CITY           SKY/WX    TMP DP  RH WIND       PRES   REMARKS
CHANUTE        CLOUDY    63  61  93 SE7       29.91F
COFFEYVILLE    CLOUDY    62  61  96 SW5       29.90F
HUTCHINSON     CLOUDY    61  57  87 SE6       29.91F
MEDICINE LODGE   N/A     58  57  97 CALM      29.90F
NEWTON         CLOUDY    61  54  77 CALM      29.93F
PARSONS        CLOUDY    63  62  97 CALM      29.91F
WICHITA INTL   CLOUDY    62  58  86 N5        29.90F
WICHITA JABRA  CLOUDY    60  58  92 MISG      29.91F
WINFIELD       CLOUDY    62  60  93 MISG      29.93R
$$

KSZ007>012-019>026-033>040-048>060-102>105-181100-
NORTHEAST KANSAS

CITY           SKY/WX    TMP DP  RH WIND       PRES   REMARKS
CONCORDIA      CLOUDY    58  57  97 CALM      29.90F
EMPORIA        LGT RAIN  61  59  93 S6        29.91F
LAWRENCE       FOG       56  55  97 CALM      29.91F VSB 1/2
MANHATTAN      LGT RAIN  61  58  90 CALM      29.90F
OLATHE IND     CLOUDY    62  58  86 E5        29.92F
OLATHE EXE     CLOUDY    63  58  83 E7        29.91F
SALINA         TSTM      61  58  90 S6        29.93R FOG
TOPEKA BILLARD CLOUDY    58  56  93 CALM      29.91F
TOPEKA FORBES  CLOUDY    60  57  89 CALM      29.90F
$$


USA.gov is the U.S. government's official web portal to all federal, state and local government web resources and services.